Location: Dunedin
(45.8900°S, 170.5000°E)
Time: 23:24:18
(UTC+12:00)

ISS - Visible Passes

Search period start: 19 August 2018 00:00
Search period end: 29 August 2018 00:00
Orbit: 401 x 409 km, 51.6° (Epoch: 19 August)

Date Brightness Start Highest point End Pass type
(mag) Time Alt. Az. Time Alt. Az. Time Alt. Az.
23 Aug -1.5 19:33:52 10° N 19:34:50 14° NNE 19:34:50 14° NNE visible
24 Aug -1.4 18:44:05 10° NE 18:44:25 10° NE 18:44:45 10° NE visible
24 Aug -1.5 20:17:00 10° NW 20:18:12 20° NW 20:18:12 20° NW visible
25 Aug -3.1 19:25:13 10° NNW 19:28:21 37° NE 19:28:44 35° NE visible
26 Aug -2.2 18:33:46 10° N 18:36:25 22° NE 18:39:04 10° E visible
26 Aug -2.7 20:09:18 10° WNW 20:11:50 46° W 20:11:50 46° W visible
27 Aug -3.8 19:17:12 10° NW 19:20:33 77° NNE 19:22:08 29° ESE visible
27 Aug -0.5 20:54:09 10° WSW 20:54:49 14° WSW 20:54:49 14° WSW visible
28 Aug -2.8 20:01:48 10° W 20:05:01 42° SSW 20:05:01 42° SSW visible
